This demonstration page uses our WeatherBlox Daily Observations layout. Learn more.

41.55636, -103.73856

Hourly Observations for June 8, 2020

Temp ( °F °C ) Dew Point ( °F °C ) Humidity (%) Winds ( mph kmh ) Pressure ( in mb ) Visibility ( mi km ) Precip ( " mm )
12:58 am 00:58 Mostly Clear 77 25.1 42 5.3 28 28 NNE 24 39 29.35 994 10 16.0934 0 0
1:58 am 01:58 Clear 71 21.5 42 5.5 35 35 N 6 9 29.41 996 10 16.0934 0 0
2:58 am 02:58 Clear 65 18.4 43 6 44 44 N 8 13 29.45 997 10 16.0934 0 0
3:58 am 03:58 Mostly Cloudy 62 16.6 43 6.3 51 51 NW 6 9 29.5 999 10 16.0934 0 0
4:58 am 04:58 Mostly Clear 61 16 44 6.6 54 54 NNW 17 28 29.53 1000 10 16.0934 0 0
5:58 am 05:58 Mostly Clear 58 14.6 41 4.9 52 52 WNW 12 19 29.57 1001 10 16.0934 0 0
6:58 am 06:58 Clear 53 11.8 43 5.9 67 67 WNW 9 15 29.61 1003 10 16.0934 0 0
7:58 am 07:58 Clear 51 10.7 44 6.4 75 75 NW 7 11 29.62 1003 10 16.0934 0 0
8:58 am 08:58 Clear 50 10.1 42 5.8 75 75 WNW 7 11 29.63 1004 10 16.0934 0 0
9:58 am 09:58 Clear 49 9.2 38 3.1 66 66 NW 6 9 29.66 1005 10 16.0934 0 0
10:58 am 10:58 Clear 47 8.6 36 2.4 65 65 WNW 12 19 29.67 1005 10 16.0934 0 0
11:58 am 11:58 Sunny 47 8.3 36 2.4 67 67 WNW 7 11 29.72 1007 10 16.0934 0 0
12:58 pm 12:58 Sunny 51 10.8 36 2.4 56 56 NW 10 17 29.71 1006 10 16.0934 0 0
1:58 pm 13:58 Sunny 56 13.6 35 1.8 45 45 NW 20 31 29.72 1007 10 16.0934 0 0
2:58 pm 14:58 Sunny 60 15.6 34 1 37 37 NW 18 30 29.74 1007 10 16.0934 0 0
3:58 pm 15:58 Sunny 64 17.6 33 0.3 31 31 NW 14 22 29.73 1007 10 16.0934 0 0
4:58 pm 16:58 Sunny 67 19.2 33 0.8 29 29 NNW 14 22 29.73 1007 10 16.0934 0 0
6:58 pm 18:58 Sunny 73 22.7 34 1.2 24 24 NNE 13 20 29.72 1007 10 16.0934 0 0
7:58 pm 19:58 Sunny 76 24.5 34 0.9 21 21 NE 12 19 29.68 1005 10 16.0934 0 0
8:58 pm 20:58 Mostly Sunny 76 24.6 35 1.9 23 23 NE 12 19 29.67 1005 10 16.0934 0 0
9:58 pm 21:58 Mostly Sunny 76 24.4 35 1.8 23 23 E 14 22 29.68 1005 10 16.0934 0 0
10:58 pm 22:58 Sunny 76 24.2 36 2.2 24 24 ENE 10 17 29.68 1005 10 16.0934 0 0
11:58 pm 23:58 Mostly Cloudy with Nearby Thunderstorms 73 22.8 38 3.6 29 29 NE 13 20 29.65 1004 10 16.0934 0 0

Powered by AerisWeather